MPEC 2007-S19 : COMET C/2007 N3 (LULIN)

The following Minor Planet Electronic Circular may be linked-to from your own Web pages, but must not otherwise be redistributed electronically.


Read MPEC 2007-S18 Read MPEC 2007-S20


M.P.E.C. 2007-S19                                Issued 2007 Sept. 19, 15:04 UT

     The Minor Planet Electronic Circulars contain information on unusual
         minor planets and routine data on comets.  They are published
   on behalf of Commission 20 of the International Astronomical Union by the
          Minor Planet Center, Smithsonian Astrophysical Observatory,
                          Cambridge, MA 02138, U.S.A.

             Prepared using the Tamkin Foundation Computer Network

                              MPC@CFA.HARVARD.EDU
          URL http://www.cfa.harvard.edu/iau/mpc.html  ISSN 1523-6714

                            COMET C/2007 N3 (LULIN)

Observations:
    CK07N030  C2007 09 07.84435 21 45 22.79 -13 07 20.5          17.7 N ES019473
    CK07N030  C2007 09 08.90346 21 44 22.58 -13 12 24.2          17.9 N ES019130
    CK07N030  C2007 09 08.90572 21 44 22.47 -13 12 24.8          17.4 N ES019130
    CK07N030  C2007 09 08.90811 21 44 22.30 -13 12 25.8          17.8 N ES019130
    CK07N030  C2007 09 08.91075 21 44 22.17 -13 12 26.4          17.6 N ES019130
    CK07N030  C2007 09 11.24318 21 42 10.47 -13 23 25.9          17.8 T ES019G96
    CK07N030  C2007 09 11.24928 21 42 10.15 -13 23 27.7          17.7 T ES019G96
    CK07N030  C2007 09 11.25542 21 42 09.79 -13 23 29.3          17.7 T ES019G96
    CK07N030  C2007 09 11.26162 21 42 09.43 -13 23 31.3          17.7 T ES019G96
    CK07N030  C2007 09 13.17101 21 40 22.85 -13 32 22.0          17.8 T ES019704
    CK07N030  C2007 09 13.18299 21 40 22.11 -13 32 25.9          18.3 T ES019704
    CK07N030  C2007 09 13.20690 21 40 20.77 -13 32 32.4          18.3 T ES019704
    CK07N030  C2007 09 13.21886 21 40 20.08 -13 32 35.6          18.1 T ES019704
    CK07N030  C2007 09 13.43354 21 40 08.29 -13 33 32.7          17.7 T ES019423
    CK07N030  C2007 09 13.44818 21 40 07.42 -13 33 37.6          17.9 T ES019423
    CK07N030  C2007 09 14.44987 21 39 11.96 -13 38 11.7          17.8 T ES019423
    CK07N030  C2007 09 14.46981 21 39 10.82 -13 38 17.2          17.8 T ES019423
    CK07N030  C2007 09 15.87174 21 37 53.82 -13 44 39.9          17.8 N ES019157
    CK07N030  C2007 09 16.17272 21 37 37.43 -13 45 59.3          18.3 T ES019704
    CK07N030  C2007 09 16.18488 21 37 36.74 -13 46 02.4          18.4 T ES019704
    CK07N030  C2007 09 16.19713 21 37 36.09 -13 46 06.2          18.5 T ES019704
    CK07N030  C2007 09 16.20933 21 37 35.42 -13 46 09.5          18.2 T ES019704
    CK07N030  C2007 09 16.22151 21 37 34.76 -13 46 12.2          18.8 T ES019704
    CK07N030  C2007 09 16.88568 21 36 58.67 -13 49 11.0          17.8 N ES019J47
    CK07N030  C2007 09 16.89691 21 36 58.06 -13 49 13.7          17.7 N ES019J47
    CK07N030  C2007 09 16.90674 21 36 57.50 -13 49 15.7          17.5 N ES019J47
    CK07N030  C2007 09 18.50468 21 35 31.28 -13 56 17.9          17.6 N ES019400
    CK07N030  C2007 09 18.51045 21 35 30.98 -13 56 19.7          17.5 N ES019400
    CK07N030  C2007 09 18.51623 21 35 30.67 -13 56 21.2          17.6 N ES019400

Observer details:
130 Lumezzane.  Observers M. Casali, W. Marinello, M. Micheli, G. Pizzetti,
    A. Soffiantini.  Measurers I. Bregoli, W. Marinello.  0.40-m f/4.5
    reflector + CCD.
157 Frasso Sabino.  Observers R. Haver, P. Caponnetto.  Measurer R. Haver.
    0.37-m f/5.8 Cassegrain + CCD.
400 Kitami.  Observer K. Endate.  0.30-m f/3.8 reflector + CCD.
423 North Ryde.  Observer S. G. McAndrew.  0.20-m f/4 hyperbolic astrograph
    + CCD.
473 Remanzacco.  Observers L. Donato, M. Gonano, V. Gonano, E. Guido,
    V. Santini, G. Sostero.  0.45-m f/4.4 Newtonian reflector + CCD.
704 Lincoln Laboratory ETS, New Mexico.  Observers M. Bezpalko, D. Torres,
    R. Kracke, G. Spitz, J. Kistler.  Measurers J. Stuart, S. Scruggs.  1.0-m
    f/2.15 reflector + CCD.
G96 Mt. Lemmon Survey.  Observer E. C. Beshore.  Measurers E. C. Beshore,
    A. Boattini, A. R. Gibbs, A. D. Grauer, R. E. Hill, R. A. Kowalski,
    S. M. Larson.  1.5-m reflector + CCD.
J47 Observatorio Nazaret.  Observer G. Muler.  0.20-m Schmidt-Cassegrain + CCD.

Orbital elements:
    C/2007 N3 (Lulin)
T 2009 Jan. 10.7580 TT                                  MPC
q   1.212009             (2000.0)            P               Q
                   Peri.  136.8415      -0.9293755      -0.3689887
                   Node   338.4881      -0.3459369      +0.8607718
e   1.0            Incl.  178.3717      -0.1287976      +0.3505984
From 316 observations 2007 July 11-Sept. 18.

Brian G. Marsden             (C) Copyright 2007 MPC           M.P.E.C. 2007-S19

Read MPEC 2007-S18 Read MPEC 2007-S20


Our Web policy. Index to the CBAT/MPC/ICQ pages.

MPC

Valid HTML 4.01!